User: anonymous   Login
Location: Bandys
(35.4750°N, 81.0830°W)
Time: 16:54:30
(UTC-04:00)
Language:

DELTA 2 R/B (1) - Orbit

View from above orbital plane
View from above orbital plane
View from above satellite
View from above satellite

Ground track
Ground track

The orbit data is extracted from the following two-line orbital elements,

1 27665U 03005C   16267.82524549 +.00000051 +00000-0 +53942-4 0  9998
2 27665 039.5770 026.5031 0009846 332.5787 164.3612 14.28419329712745
Epoch (UTC): 23 September 2016 19:48:21
Eccentricity: 0.0009846
inclination: 39.5770°
perigee height: 790 km
apogee height: 804 km
right ascension of ascending node: 26.5031°
argument of perigee: 332.5787°
revolutions per day: 14.28419329
mean anomaly at epoch: 164.3612°
orbit number at epoch: 71274

The dashed part of the orbit path shows where the satellite is in the earth's shadow,  

DLR